This is the latest recevied weather packets stored in our database for station/object W4JCW. If no packets are shown the sender has not sent any weather packets the latest 10 day(s).
| Time | Temp. | Humidity | Pressure | Rain* | Wind** | Luminosity | Snow |
|---|---|---|---|---|---|---|---|
| 1777846124 | 22.22° C | 36% | 1014.8 hPa | 0 mm | - | 267 W/m² | - |
| 1777845821 | 22.22° C | 36% | 1014.9 hPa | 0 mm | - | 282 W/m² | - |
| 1777845518 | 22.22° C | 35% | 1014.9 hPa | 0 mm | - | 305 W/m² | - |
| 1777845215 | 22.22° C | 36% | 1014.7 hPa | 0 mm | - | 326 W/m² | - |
| 1777844913 | 22.22° C | 36% | 1014.8 hPa | 0 mm | - | 346 W/m² | - |
| 1777844610 | 22.78° C | 35% | 1014.9 hPa | 0 mm | - | 365 W/m² | - |
| 1777844307 | 22.78° C | 35% | 1015.1 hPa | 0 mm | - | 386 W/m² | - |
| 1777844005 | 22.78° C | 35% | 1014.9 hPa | 0 mm | - | 407 W/m² | - |
| 1777843701 | 22.22° C | 34% | 1015 hPa | 0 mm | - | 430 W/m² | - |
| 1777843399 | 22.78° C | 35% | 1015 hPa | 0 mm | - | 449 W/m² | - |
| 1777843096 | 22.22° C | 34% | 1015.1 hPa | 0 mm | - | 466 W/m² | - |
| 1777842793 | 21.67° C | 35% | 1015 hPa | 0 mm | - | 492 W/m² | - |
| 1777842493 | 22.22° C | 34% | 1015 hPa | 0 mm | - | 510 W/m² | - |
| 1777842191 | 21.67° C | 35% | 1014.9 hPa | 0 mm | - | 529 W/m² | - |
| 1777841886 | 21.67° C | 35% | 1014.9 hPa | 0 mm | - | 542 W/m² | - |
| 1777841583 | 22.22° C | 34% | 1015 hPa | 0 mm | - | 572 W/m² | - |
| 1777841279 | 22.22° C | 35% | 1015 hPa | 0 mm | - | 589 W/m² | - |
| 1777840977 | 22.22° C | 35% | 1015.1 hPa | 0 mm | - | 603 W/m² | - |
| 1777840674 | 22.22° C | 32% | 1015.1 hPa | 0 mm | - | 626 W/m² | - |
| 1777840371 | 22.22° C | 34% | 1015.2 hPa | 0 mm | - | 642 W/m² | - |
| 1777840068 | 22.22° C | 34% | 1015.2 hPa | 0 mm | - | 659 W/m² | - |
| 1777839766 | 21.67° C | 37% | 1015.2 hPa | 0 mm | - | 672 W/m² | - |
| 1777839464 | 22.22° C | 35% | 1015.3 hPa | 0 mm | - | 685 W/m² | - |
| 1777839161 | 22.22° C | 35% | 1015.4 hPa | 0 mm | - | 702 W/m² | - |
| 1777838857 | 22.22° C | 35% | 1015.5 hPa | 0 mm | - | 717 W/m² | - |
* Rain latest hour (hover to see other rain measurements)
** Current wind speed in m/s (hover to see current wind gust speed)